This is the latest recevied weather packets stored in our database for station/object ENMS. If no packets are shown the sender has not sent any weather packets the latest 10 day(s).
| Time | Temp. | Humidity | Pressure | Rain* | Wind** | Luminosity | Snow |
|---|---|---|---|---|---|---|---|
| 1777717988 | 5.56° C | 65% | 1007 hPa | - | - | - | - |
| 1777716189 | 5° C | 65% | 1007 hPa | - | - | - | - |
| 1777714390 | 3.89° C | 75% | 1006 hPa | - | - | - | - |
| 1777712588 | 6.67° C | 52% | 1006 hPa | - | - | - | - |
| 1777710788 | 5° C | 60% | 1006 hPa | - | - | - | - |
| 1777708987 | 5.56° C | 65% | 1006 hPa | - | - | - | - |
| 1777707187 | 5° C | 75% | 1006 hPa | - | - | - | - |
| 1777705390 | 5.56° C | 65% | 1005 hPa | - | - | - | - |
| 1777703588 | 5° C | 75% | 1005 hPa | - | - | - | - |
| 1777701789 | 5° C | 80% | 1005 hPa | - | - | - | - |
| 1777699989 | 5° C | 80% | 1004 hPa | - | - | - | - |
| 1777698188 | 5° C | 80% | 1004 hPa | - | - | - | - |
| 1777696409 | 6.67° C | 81% | 1004 hPa | - | - | - | - |
| 1777694588 | 6.67° C | 81% | 1003 hPa | - | - | - | - |
| 1777692791 | 7.78° C | 70% | 1004 hPa | - | - | - | - |
| 1777690989 | 7.78° C | 70% | 1004 hPa | - | - | - | - |
| 1777689209 | 7.78° C | 75% | 1004 hPa | - | - | - | - |
| 1777687389 | 7.78° C | 75% | 1005 hPa | - | - | - | - |
| 1777685588 | 7.78° C | 81% | 1005 hPa | - | - | - | - |
| 1777683790 | 8.89° C | 70% | 1005 hPa | - | - | - | - |
| 1777681990 | 8.89° C | 70% | 1006 hPa | - | - | - | - |
| 1777680191 | 8.89° C | 75% | 1006 hPa | - | - | - | - |
| 1777678389 | 8.89° C | 70% | 1006 hPa | - | - | - | - |
| 1777676588 | 8.89° C | 70% | 1007 hPa | - | - | - | - |
| 1777674789 | 8.89° C | 75% | 1007 hPa | - | - | - | - |
* Rain since midnight (hover to see other rain measurements)
** Current wind speed in m/s (hover to see current wind gust speed)